Flag for Russia Weather past 2 weeks in Bryansk, Russia

Now
59 °F

Clear.


Feels Like: 60 °F
Forecast: 54 / 84 °F
Wind: 3 mph from North

Location: Brjansk

Current Time: Jul 26, 2014 at 3:15:54 AM

Latest Report: Jul 26, 2014 at 2:00 AM


Visibility: 10 mi

Pressure: 30.09 "Hg

Humidity: 68%

Dew point: 48 °F

Location of BryanskLocation

Historic Weather in Bryansk — Graph

°F

Bryansk temperature yesterday

Maximum temperature yesterday: 82 °F (at 5:00 PM)
Minimum temperature yesterday: 61 °F (at 5:00 AM)
Average temperature yesterday: 73 °F

Past Weeks' High & Low Weather Summary

 TemperatureHumidityPressure
High90 °F (Jul 16, 4:00 PM)100% (Jul 11, 8:00 AM)30.12 "Hg (Jul 11, 8:00 AM)
Low55 °F (Jul 16, 6:00 AM)22% (Jul 16, 3:00 PM)29.83 "Hg (Jul 11, 2:00 AM)
Average73 °F60%30.00 "Hg
* Reported Jul 11 2:00 AM — Jul 26 2:00 AM, Bryansk, Weather by CustomWeather, © 2014

Note: Actual official high and low records may vary slightly from our data, if they occured in-between our weather recording intervals... More about our weather records

Advertising

Bryansk weather history for previous 24 hours

 ConditionsComfort  
Time TempWeatherWind HumidityBarometerVisibility
2:00 AM
Jul 26
59 °FClear.3 mph68%30.09 "Hg10 mi
1:00 AM61 °FClear.3 mph63%30.09 "Hg10 mi
12:00 AM64 °FClear.No wind60%30.09 "Hg10 mi
11:00 PM
Jul 25
66 °FClear.No wind56%30.09 "Hg10 mi
10:00 PM70 °FSunny.6 mph53%30.09 "Hg10 mi
9:00 PM75 °FSunny.3 mph41%30.07 "Hg10 mi
8:00 PM79 °FSunny.6 mph34%30.07 "Hg10 mi
7:00 PM81 °FPassing clouds.6 mph34%30.07 "HgN/A
6:00 PM81 °FSunny.6 mph34%30.07 "Hg10 mi
5:00 PM82 °FScattered clouds.8 mph30%30.07 "HgN/A
4:00 PM81 °FPartly sunny.8 mph37%30.07 "HgN/A
3:00 PM79 °FPartly sunny.1 mph45%30.07 "HgN/A
2:00 PM81 °FPartly sunny.8 mph42%30.07 "HgN/A
1:00 PM77 °FScattered clouds.6 mph47%30.07 "HgN/A
12:00 PM77 °FSunny.10 mph54%30.07 "Hg10 mi
11:00 AM75 °FPassing clouds.6 mph57%30.07 "HgN/A
10:00 AM70 °FSunny.8 mph69%30.07 "Hg10 mi
9:00 AM66 °FSunny.8 mph73%30.07 "Hg10 mi
8:00 AM64 °FSunny.8 mph78%30.07 "Hg10 mi
7:00 AM61 °FSunny.3 mph88%30.04 "Hg10 mi
6:00 AM61 °FClear.1 mph88%30.04 "Hg10 mi
5:00 AM61 °FClear.1 mph88%30.04 "Hg10 mi
Weather by CustomWeather, © 2014

See weather overviewHow to use our weather pages